Time,TemperatureF,DewpointF,PressureIn,WindDirection,WindDirectionDegrees,WindSpeedMPH,WindSpeedGustMPH,Humidity,HourlyPrecipIn,Conditions,Clouds,dailyrainin,SoftwareType,DateUTC
2013-04-05 00:03:00,52.0,-99.9,-100.00,SSW,195,3.0,-999.0,-999,-99.99,,,-99.99,,2013-04-05 07:03:00,
2013-04-05 00:12:00,52.0,-99.9,-100.00,SSW,195,3.0,-999.0,-999,-99.99,,,-99.99,,2013-04-05 07:12:00,
2013-04-05 00:20:00,52.0,-99.9,-100.00,SSW,198,6.0,-999.0,-999,-99.99,,,-99.99,,2013-04-05 07:20:00,
2013-04-05 01:03:00,52.0,-99.9,-100.00,SSW,198,6.0,-999.0,-999,-99.99,,,-99.99,,2013-04-05 08:03:00,
2013-04-05 01:13:00,52.0,-99.9,-100.00,SSW,198,6.0,-999.0,-999,-99.99,,,-99.99,,2013-04-05 08:13:00,
2013-04-05 01:20:00,53.0,-99.9,-100.00,SSE,164,6.0,-999.0,-999,-99.99,,,-99.99,,2013-04-05 08:20:00,
2013-04-05 02:02:00,53.0,-99.9,-100.00,SSE,164,6.0,-999.0,-999,-99.99,,,-99.99,,2013-04-05 09:02:00,
2013-04-05 02:13:00,53.0,-99.9,-100.00,SSE,164,6.0,-999.0,-999,-99.99,,,-99.99,,2013-04-05 09:13:00,
2013-04-05 02:20:00,52.0,-99.9,-100.00,SSW,198,12.0,-999.0,-999,-99.99,,,-99.99,,2013-04-05 09:20:00,
2013-04-05 03:03:00,52.0,-99.9,-100.00,SSW,198,12.0,-999.0,-999,-99.99,,,-99.99,,2013-04-05 10:03:00,
2013-04-05 03:13:00,52.0,-99.9,-100.00,SSW,198,12.0,-999.0,-999,-99.99,,,-99.99,,2013-04-05 10:13:00,
2013-04-05 03:20:00,51.0,-99.9,-100.00,SW,227,5.0,-999.0,-999,-99.99,,,-99.99,,2013-04-05 10:20:00,
2013-04-05 04:03:00,51.0,-99.9,-100.00,SW,227,5.0,-999.0,-999,-99.99,,,-99.99,,2013-04-05 11:03:00,
2013-04-05 04:13:00,51.0,-99.9,-100.00,SW,227,5.0,-999.0,-999,-99.99,,,-99.99,,2013-04-05 11:13:00,
2013-04-05 04:20:00,51.0,-99.9,-100.00,SSW,212,6.0,-999.0,-999,-99.99,,,-99.99,,2013-04-05 11:20:00,
2013-04-05 05:02:00,51.0,-99.9,-100.00,SSW,212,6.0,-999.0,-999,-99.99,,,-99.99,,2013-04-05 12:02:00,
2013-04-05 05:12:00,51.0,-99.9,-100.00,SSW,212,6.0,-999.0,-999,-99.99,,,-99.99,,2013-04-05 12:12:00,
2013-04-05 05:20:00,51.0,-99.9,-100.00,South,189,12.0,-999.0,-999,-99.99,,,-99.99,,2013-04-05 12:20:00,
2013-04-05 06:02:00,51.0,-99.9,-100.00,South,189,12.0,-999.0,-999,-99.99,,,-99.99,,2013-04-05 13:02:00,
2013-04-05 06:12:00,51.0,-99.9,-100.00,South,189,12.0,-999.0,-999,-99.99,,,-99.99,,2013-04-05 13:12:00,
2013-04-05 06:20:00,51.0,-99.9,-100.00,South,189,10.0,-999.0,-999,-99.99,,,-99.99,,2013-04-05 13:20:00,
2013-04-05 07:03:00,51.0,-99.9,-100.00,South,189,10.0,-999.0,-999,-99.99,,,-99.99,,2013-04-05 14:03:00,
2013-04-05 07:12:00,51.0,-99.9,-100.00,South,189,10.0,-999.0,-999,-99.99,,,-99.99,,2013-04-05 14:12:00,
2013-04-05 07:20:00,52.0,-99.9,-100.00,South,191,9.0,-999.0,-999,-99.99,,,-99.99,,2013-04-05 14:20:00,
2013-04-05 08:02:00,52.0,-99.9,-100.00,South,191,9.0,-999.0,-999,-99.99,,,-99.99,,2013-04-05 15:02:00,
2013-04-05 08:13:00,52.0,-99.9,-100.00,South,191,9.0,-999.0,-999,-99.99,,,-99.99,,2013-04-05 15:13:00,
2013-04-05 08:20:00,51.0,-99.9,-100.00,SSW,198,8.0,-999.0,-999,-99.99,,,-99.99,,2013-04-05 15:20:00,
2013-04-05 09:03:00,51.0,-99.9,-100.00,SSW,198,8.0,-999.0,-999,-99.99,,,-99.99,,2013-04-05 16:03:00,
2013-04-05 09:15:00,51.0,-99.9,-100.00,SSW,198,8.0,-999.0,-999,-99.99,,,-99.99,,2013-04-05 16:15:00,
2013-04-05 09:20:00,51.0,-99.9,-100.00,SSW,198,9.0,-999.0,-999,-99.99,,,-99.99,,2013-04-05 16:20:00,
2013-04-05 10:04:00,51.0,-99.9,-100.00,SSW,198,9.0,-999.0,-999,-99.99,,,-99.99,,2013-04-05 17:04:00,
2013-04-05 10:13:00,51.0,-99.9,-100.00,SSW,198,9.0,-999.0,-999,-99.99,,,-99.99,,2013-04-05 17:13:00,
2013-04-05 10:20:00,52.0,-99.9,-100.00,SSW,201,7.0,-999.0,-999,-99.99,,,-99.99,,2013-04-05 17:20:00,
2013-04-05 11:03:00,52.0,-99.9,-100.00,SSW,201,7.0,-999.0,-999,-99.99,,,-99.99,,2013-04-05 18:03:00,
2013-04-05 11:13:00,52.0,-99.9,-100.00,SSW,201,7.0,-999.0,-999,-99.99,,,-99.99,,2013-04-05 18:13:00,
2013-04-05 11:20:00,54.0,-99.9,-100.00,SSW,200,14.0,-999.0,-999,-99.99,,,-99.99,,2013-04-05 18:20:00,
2013-04-05 12:03:00,54.0,-99.9,-100.00,SSW,200,14.0,-999.0,-999,-99.99,,,-99.99,,2013-04-05 19:03:00,
2013-04-05 12:14:00,54.0,-99.9,-100.00,SSW,200,14.0,-999.0,-999,-99.99,,,-99.99,,2013-04-05 19:14:00,
2013-04-05 12:20:00,54.0,-99.9,-100.00,South,176,7.0,-999.0,-999,-99.99,,,-99.99,,2013-04-05 19:20:00,
2013-04-05 13:03:00,54.0,-99.9,-100.00,South,176,7.0,-999.0,-999,-99.99,,,-99.99,,2013-04-05 20:03:00,
2013-04-05 13:12:00,54.0,-99.9,-100.00,South,176,7.0,-999.0,-999,-99.99,,,-99.99,,2013-04-05 20:12:00,
2013-04-05 13:20:00,54.0,-99.9,-100.00,SSE,158,3.0,-999.0,-999,-99.99,,,-99.99,,2013-04-05 20:20:00,
2013-04-05 14:03:00,54.0,-99.9,-100.00,SSE,158,3.0,-999.0,-999,-99.99,,,-99.99,,2013-04-05 21:03:00,
2013-04-05 14:13:00,54.0,-99.9,-100.00,SSE,158,3.0,-999.0,-999,-99.99,,,-99.99,,2013-04-05 21:13:00,
2013-04-05 14:20:00,57.0,-99.9,-100.00,SSW,193,6.0,-999.0,-999,-99.99,,,-99.99,,2013-04-05 21:20:00,
2013-04-05 15:04:00,57.0,-99.9,-100.00,SSW,193,6.0,-999.0,-999,-99.99,,,-99.99,,2013-04-05 22:04:00,
2013-04-05 15:14:00,57.0,-99.9,-100.00,SSW,193,6.0,-999.0,-999,-99.99,,,-99.99,,2013-04-05 22:14:00,
2013-04-05 15:20:00,56.0,-99.9,-100.00,SSW,197,10.0,-999.0,-999,-99.99,,,-99.99,,2013-04-05 22:20:00,
2013-04-05 16:03:00,56.0,-99.9,-100.00,SSW,197,10.0,-999.0,-999,-99.99,,,-99.99,,2013-04-05 23:03:00,
2013-04-05 16:13:00,56.0,-99.9,-100.00,SSW,197,10.0,-999.0,-999,-99.99,,,-99.99,,2013-04-05 23:13:00,
2013-04-05 16:20:00,56.0,-99.9,-100.00,SSW,202,8.0,-999.0,-999,-99.99,,,-99.99,,2013-04-05 23:20:00,
2013-04-05 17:03:00,56.0,-99.9,-100.00,SSW,202,8.0,-999.0,-999,-99.99,,,-99.99,,2013-04-06 00:03:00,
2013-04-05 17:13:00,56.0,-99.9,-100.00,SSW,202,8.0,-999.0,-999,-99.99,,,-99.99,,2013-04-06 00:13:00,
2013-04-05 17:20:00,52.0,-99.9,-100.00,South,190,7.0,-999.0,-999,-99.99,,,-99.99,,2013-04-06 00:20:00,
2013-04-05 18:03:00,52.0,-99.9,-100.00,South,190,7.0,-999.0,-999,-99.99,,,-99.99,,2013-04-06 01:03:00,
2013-04-05 18:13:00,52.0,-99.9,-100.00,South,190,7.0,-999.0,-999,-99.99,,,-99.99,,2013-04-06 01:13:00,
2013-04-05 18:20:00,51.0,-99.9,-100.00,SSW,208,1.0,-999.0,-999,-99.99,,,-99.99,,2013-04-06 01:20:00,
2013-04-05 19:03:00,51.0,-99.9,-100.00,SSW,208,1.0,-999.0,-999,-99.99,,,-99.99,,2013-04-06 02:03:00,
2013-04-05 19:13:00,51.0,-99.9,-100.00,SSW,208,1.0,-999.0,-999,-99.99,,,-99.99,,2013-04-06 02:13:00,
2013-04-05 19:20:00,51.0,-99.9,-100.00,South,184,9.0,-999.0,-999,-99.99,,,-99.99,,2013-04-06 02:20:00,
2013-04-05 20:05:00,51.0,-99.9,-100.00,South,184,9.0,-999.0,-999,-99.99,,,-99.99,,2013-04-06 03:05:00,
2013-04-05 20:13:00,51.0,-99.9,-100.00,South,184,9.0,-999.0,-999,-99.99,,,-99.99,,2013-04-06 03:13:00,
2013-04-05 20:20:00,49.0,-99.9,-100.00,SSW,204,2.0,-999.0,-999,-99.99,,,-99.99,,2013-04-06 03:20:00,
2013-04-05 21:05:00,49.0,-99.9,-100.00,SSW,204,2.0,-999.0,-999,-99.99,,,-99.99,,2013-04-06 04:05:00,
2013-04-05 21:14:00,49.0,-99.9,-100.00,SSW,204,2.0,-999.0,-999,-99.99,,,-99.99,,2013-04-06 04:14:00,
2013-04-05 21:20:00,49.0,-99.9,-100.00,SE,144,2.0,-999.0,-999,-99.99,,,-99.99,,2013-04-06 04:20:00,
2013-04-05 22:02:00,49.0,-99.9,-100.00,SE,144,2.0,-999.0,-999,-99.99,,,-99.99,,2013-04-06 05:02:00,
2013-04-05 22:14:00,49.0,-99.9,-100.00,SE,144,2.0,-999.0,-999,-99.99,,,-99.99,,2013-04-06 05:14:00,
2013-04-05 22:20:00,49.0,-99.9,-100.00,SE,142,3.0,-999.0,-999,-99.99,,,-99.99,,2013-04-06 05:20:00,
2013-04-05 23:03:00,49.0,-99.9,-100.00,SE,142,3.0,-999.0,-999,-99.99,,,-99.99,,2013-04-06 06:03:00,
2013-04-05 23:12:00,49.0,-99.9,-100.00,SE,142,3.0,-999.0,-999,-99.99,,,-99.99,,2013-04-06 06:12:00,
2013-04-05 23:20:00,49.0,-99.9,-100.00,East,99,3.0,-999.0,-999,-99.99,,,-99.99,,2013-04-06 06:20:00,